User: anonymous   Login
Location: Newark
(45.9456°N, 15.4064°E)
Time: 19:42:42
(UTC+00:00)
Language:

Transit 4A - Orbit

View from above orbital plane
View from above orbital plane
View from above satellite
View from above satellite

Ground track
Ground track

The orbit data is extracted from the following two-line orbital elements,

1   116U 61015A   20021.51111650 -.00000049  00000-0  21603-4 0  9996
2   116  66.8078 209.8683 0069626 114.5950 246.2405 13.91764621971724
Epoch (UTC): 21 January 2020 12:16:00
Eccentricity: 0.0069626
inclination: 66.8078°
perigee height: 871 km
apogee height: 973 km
right ascension of ascending node: 209.8683°
argument of perigee: 114.5950°
revolutions per day: 13.91764621
mean anomaly at epoch: 246.2405°
orbit number at epoch: 97172

The dashed part of the orbit path shows where the satellite is in the earth's shadow,  

DLR